Flag for United Kingdom Weather past 2 weeks in Milton Keynes, England, United Kingdom

Now
72 °F

Passing clouds.


Feels Like: 75 °F
Forecast: 57 / 71 °F
Wind: 7 mph from North

Location: Cranfield

Current Time: Jul 26, 2014 at 10:27:47 AM

Latest Report: Jul 26, 2014 at 9:50 AM


Visibility: N/A

Pressure: 30.04 "Hg

Humidity: 69%

Dew point: 61 °F

Location of Milton KeynesLocation

Historic Weather in Milton Keynes — Graph

°F

Milton Keynes temperature yesterday

Maximum temperature yesterday: 81 °F (at 2:20 PM)
Minimum temperature yesterday: 63 °F (at 8:50 AM)
Average temperature yesterday: 75 °F

Past Weeks' High & Low Weather Summary

 TemperatureHumidityPressure
High84 °F (Jul 18, 2:50 PM)100% (Jul 11, 8:20 AM)30.24 "Hg (Jul 11, 8:20 AM)
Low55 °F (Jul 11, 8:20 AM)39% (Jul 24, 5:50 PM)29.71 "Hg (Jul 13, 10:20 AM)
Average72 °F72%30.00 "Hg
* Reported Jul 11 8:20 AM — Jul 26 8:50 AM, Milton Keynes, Weather by CustomWeather, © 2014

Note: Actual official high and low records may vary slightly from our data, if they occured in-between our weather recording intervals... More about our weather records

Advertising

Milton Keynes weather history for previous 24 hours

 ConditionsComfort  
Time TempWeatherWind HumidityBarometerVisibility
8:50 AM
Jul 26
66 °FPassing clouds.9 mph83%30.04 "HgN/A
8:20 AM66 °FPassing clouds.7 mph83%30.04 "HgN/A
5:50 PM
Jul 25
79 °FPassing clouds.14 mph51%30.01 "HgN/A
5:20 PM79 °FPassing clouds.15 mph48%30.01 "HgN/A
4:50 PM79 °FPassing clouds.14 mph45%30.01 "HgN/A
4:20 PM81 °FPassing clouds.14 mph42%30.01 "HgN/A
3:50 PM81 °FPassing clouds.15 mph42%30.01 "HgN/A
3:20 PM81 °FScattered showers. Passing clouds.15 mph45%30.01 "HgN/A
2:50 PM81 °FScattered showers. Passing clouds.14 mph42%30.01 "HgN/A
2:20 PM81 °FPassing clouds.14 mph42%30.01 "HgN/A
1:20 PM79 °FPassing clouds.14 mph51%30.04 "HgN/A
12:50 PM79 °FPassing clouds.13 mph51%30.04 "HgN/A
12:20 PM77 °FPassing clouds.10 mph61%30.04 "HgN/A
11:50 AM75 °FPassing clouds.10 mph69%30.07 "Hg6 mi
11:20 AM72 °FPassing clouds.10 mph78%30.07 "Hg4 mi
10:50 AM70 °FScattered clouds.7 mph83%30.07 "Hg4 mi
10:20 AM66 °FPartly sunny.9 mph94%30.07 "Hg2 mi
Weather by CustomWeather, © 2014

See weather overviewHow to use our weather pages